{"data":{"norad_id":57866,"epoch":"2026-09-20T08:47:56.577120Z","epoch_age_seconds":146145,"freshness":"FRESH","line1":"1 57866U 23144C   26263.36662705 -.00001508  00000+0 -45312-4 0  9994","line2":"2 57866  43.0023 265.5208 0001169 284.2730  75.7991 15.27559523167373","mean_motion":15.27559523,"eccentricity":0.0001169,"inclination_deg":43.0023,"raan_deg":265.5208,"arg_perigee_deg":284.273,"mean_anomaly_deg":75.7991,"bstar":-4.5312e-5,"rev_number":16737,"period_min":94.268012363404,"perigee_km":482.30833240667,"apogee_km":483.91249205165,"semimajor_km":6861.2474122292,"source":"CELESTRAK","updated_at":"2026-09-21T09:00:33.716058Z"}}